Weather History for Ponca City, OK

Change the Weather History Date:

Tuesday, May 15, 2012

  Actual Average Record
Temperature  
Mean Temperature 72 °F -  
Max Temperature 84 °F 81 °F 93 °F (1966)
Min Temperature 59 °F 52 °F 40 °F (1971)
Cooling Degree Days 6    
Growing Degree Days 22 (Base 50)    
Moisture  
Dew Point 52 °F    
Average Humidity 53    
Maximum Humidity 75    
Minimum Humidity 31    
Precipitation  
Precipitation 0.00 in - - ()
Sea Level Pressure  
Sea Level Pressure 30.02 in    
Wind  
Wind Speed 4 mph (SSE)    
Max Wind Speed 12 mph    
Max Gust Speed -    
Visibility 10 miles    
Events      
Averages and records for this station are not official NWS values.
T = Trace of Precipitation, MM = Missing Value Source: NWS Daily Summary

Daily Weather History Graph

Daily Weather History Graph

Search for Another Location

Airport:

Trip Planner

Search our weather history database for the weather conditions in past years. The results will help you decide how hot, cold, wet, or windy it might be!

Date:

Astronomy

May. 15, 2012 Rise Set
Actual Time 6:20 AM CDT 8:29 PM CDT
Civil Twilight 5:51 AM CDT 8:58 PM CDT
Nautical Twilight 5:16 AM CDT 9:33 PM CDT
Astronomical Twilight 4:38 AM CDT 10:12 PM CDT
Moon 3:15 AM CDT (5/15) 3:55 PM CDT (5/15)
Length of Visible Light 15h 06m
Length of Day
14h 08m
Waning Crescent, 23% of the Moon is Illuminated
May 15
Waning Crescent
May 20
New
May 28
First Quarter
Jun 4
Full
Jun 11
Last Quarter

Hourly Weather History & Observations

Time (CDT) Temp. Heat Index Dew Point Humidity Pressure Visibility Wind Dir Wind Speed Gust Speed Precip Events Conditions
12:53 AM 61.0 °F - 51.1 °F 70% 30.06 in 10.0 mi Calm Calm - N/A   Overcast
1:53 AM 64.0 °F - 51.1 °F 63% 30.04 in 10.0 mi Calm Calm - N/A   Overcast
2:53 AM 63.0 °F - 50.0 °F 63% 30.04 in 10.0 mi SE 3.5 mph - N/A   Mostly Cloudy
3:53 AM 61.0 °F - 51.1 °F 70% 30.04 in 10.0 mi South 3.5 mph - N/A   Mostly Cloudy
4:53 AM 59.0 °F - 51.1 °F 75% 30.04 in 10.0 mi Calm Calm - N/A   Partly Cloudy
5:53 AM 60.8 °F - 51.8 °F 72% 30.06 in 10.0 mi SSE 4.6 mph - N/A   Partly Cloudy
6:53 AM 60.1 °F - 52.0 °F 75% 30.05 in 10.0 mi South 3.5 mph - N/A   Scattered Clouds
7:53 AM 64.9 °F - 54.0 °F 68% 30.06 in 10.0 mi SSE 6.9 mph - N/A   Clear
8:53 AM 70.0 °F - 54.0 °F 57% 30.07 in 10.0 mi South 5.8 mph - N/A   Clear
9:53 AM 73.0 °F - 55.0 °F 53% 30.07 in 10.0 mi SSW 5.8 mph - N/A   Clear
10:53 AM 75.9 °F - 53.1 °F 45% 30.06 in 10.0 mi South 5.8 mph - N/A   Clear
11:53 AM 79.0 °F - 54.0 °F 42% 30.05 in 10.0 mi South 6.9 mph - N/A   Clear
12:53 PM 81.0 °F 80.5 °F 54.0 °F 39% 30.03 in 10.0 mi South 6.9 mph - N/A   Clear
1:53 PM 82.9 °F - 52.0 °F 34% 30.00 in 10.0 mi Variable 5.8 mph - N/A   Clear
3:53 PM 84.9 °F - 51.1 °F 31% 29.98 in 10.0 mi SSE 8.1 mph - N/A   Clear
5:53 PM 82.9 °F - 50.0 °F 32% 29.96 in 10.0 mi SE 8.1 mph - N/A   Clear
6:53 PM 82.0 °F - 48.9 °F 31% 29.96 in 10.0 mi SE 11.5 mph - N/A   Clear
7:53 PM 78.1 °F - 51.1 °F 39% 29.96 in 10.0 mi SE 6.9 mph - N/A   Clear
8:53 PM 72.0 °F - 51.1 °F 48% 29.98 in 10.0 mi SE 5.8 mph - N/A   Clear
9:53 PM 69.1 °F - 52.0 °F 54% 30.00 in 10.0 mi ESE 4.6 mph - N/A   Clear
10:53 PM 68.0 °F - 53.1 °F 59% 30.02 in 10.0 mi SSE 8.1 mph - N/A   Clear
11:53 PM 68.0 °F - 52.0 °F 56% 30.01 in 10.0 mi SSE 3.5 mph - N/A   Clear